Location: Krakow
(50.0830°N, 19.9170°E)
Time: 06:21:14
(UTC+02:00)

Tiros 1 despin weight - Pass Details

Date: 16 March 2026
Orbit: 555 x 592 km, 48.2° (Epoch: 18 April)

Event Time Altitude Azimuth Distance (km) Brightness Sun altitude
Rises 07:28:54 0° 268° (W) 2,808 ? 14.3°
Reaches altitude 10° 07:31:11 10° 266° (W) 1,902 ? 14.7°
Maximum altitude 07:35:31 69° 184° (S) 622 ? 15.3°
Drops below altitude 10° 07:39:48 10° 101° (ESE) 1,878 ? 16.0°
Sets 07:42:03 0° 99° (E) 2,769 ? 16.3°
